Regional Weather Roundup
Issued by NWS Charleston, WV

Home | Current Version | Previous Version | Graphics & Text | Print | Product List | Glossary On
Versions: 1 2 3 4 5 6 7 8 9 10 11 12 13 14 15 16 17 18 19 20 21 22 23 24 25 26 27 28
000
ASUS41 KRLX 151710
RWRRLX
West Virginia Regional Weather Roundup
National Weather Service Charleston WV
1200 PM EST MON JAN 15 2018

Note: "fair" indicates few or no clouds below 12,000 feet with no
significant weather and/or obstructions to visibility.

WVZ003-151800-
Northern Panhandle of West Virginia

CITY           SKY/WX    TMP DP  RH WIND       PRES   REMARKS
WHEELING         N/A     21  15  78 S8        30.36S
$$

WVZ009-151800-
Northwest West Virginia

CITY           SKY/WX    TMP DP  RH WIND       PRES   REMARKS
PARKERSBURG    CLOUDY    27  18  69 S7        30.39F
$$

WVZ006-151800-
Western West Virginia

CITY           SKY/WX    TMP DP  RH WIND       PRES   REMARKS
HUNTINGTON     CLOUDY    30  19  63 SW5       30.35F
$$

WVZ015-151800-
West Central West Virginia

CITY           SKY/WX    TMP DP  RH WIND       PRES   REMARKS
CHARLESTON     CLOUDY    31  16  54 S8        30.36F
$$

WVZ022-031-151800-
North Central West Virginia

CITY           SKY/WX    TMP DP  RH WIND       PRES   REMARKS
CLARKSBURG       N/A     28  19  69 VRB5      30.37F
MORGANTOWN     CLOUDY    25  15  66 SE9       30.38F
$$

WVZ025-035-042-045-151800-
Southern West Virginia

CITY           SKY/WX    TMP DP  RH WIND       PRES   REMARKS
BECKLEY        PTSUNNY   27  14  58 SE8       30.31F
LOGAN          CLOUDY    28  16  59 S9        30.32F
BLUEFIELD      CLOUDY    25  11  55 VRB5      30.31F
LEWISBURG        N/A     23   8  51 CALM      30.38F
$$

WVZ047-151800-
Northern Mountains of West Virginia

CITY           SKY/WX    TMP DP  RH WIND       PRES   REMARKS
ELKINS           N/A     26  22  84 N3        30.33F
$$

WVZ052-151800-
Eastern Panhandle of West Virginia

CITY           SKY/WX    TMP DP  RH WIND       PRES   REMARKS
MARTINSBURG      N/A     22   5  48 SE5       30.55F
PETERSBURG     LGT SNOW  17  10  73 CALM      30.50F
$$




USA.gov is the U.S. government's official web portal to all federal, state and local government web resources and services.